Погода в Белоцерковке

Украина / Полтавская область     49°40′25″N   33°48′07″E
темп.,
°C
ветер,
м/с
пор.,
м/с
влажн.,
%
обл.,
%
осадки,
мм/ч
давл.,
гПа
погр.,
м
17 октября, вс
вс1700:00+9ссз235496 0.0 101980
03:00+9с2471100 0.0 1018116
06:00+8с3581100 0.0 1018168
09:00+8с357860 0.0 1019204
12:00+13ссз335911 0.0 1019749
15:00+14ссз445440 0.0 10181201
18:00+10сз34675 0.0 101862
21:00+8ссз347538 0.0 101952
18 октября, пн
пн1800:00+6сз33795 0.0 101932
03:00+5сз2282100 0.0 101936
06:00+5сз2280100 0.0 101934
09:00+7зсз3567100 0.0 1020224
12:00+10зсз455392 0.0 1019893
15:00+11зсз4548100 0.0 10181203
18:00+9зсз3557100 0.0 1018137
21:00+8з4671100 0.0 1018986
19 октября, вт
вт1900:00+8зюз4882100 0.3 1018522
03:00+7з488873 0.6 1017408
06:00+7сз4689100 1.2 1017865
09:00+6с5980100 2.4 1019757
12:00+9ссз79495 0.0 10211432
15:00+9ссз79435 0.0 10211600
18:00+6сз510525 0.0 1023281
21:00+4зсз496439 0.0 1025234
20 октября, ср
ср2000:00+3сз37765 0.0 1026153
03:00+2зсз37795 0.0 1027132
06:00+1сз3579100 0.0 1028109
09:00+3сз237037 0.0 1028184
12:00+8з344972 0.0 1028980
15:00+9з3444100 0.0 10271107
18:00+6ююз355829 0.0 102682
21:00+4ю476548 0.0 1025123
21 октября, чт
чт2100:00+4ю41064100 0.0 1024181
03:00+4ю5126129 0.0 1023253
06:00+4ю5146832 0.0 1022319
09:00+7ю7167095 0.0 1020473
12:00+12ююз91461100 0.0 1019812
15:00+14ююз81453100 0.0 10161095
18:00+13ююз81558100 0.0 1015768
21:00+11ююз81569100 0.0 1015581